Modesto, CA

5:51 AM PST on December 06, 2016 (GMT -0800)
Carver RD @ Rumble RD | | Change Station
Active Advisory: Freeze Watch

Elev 95 ft 37.68 °N, 121.02 °W | Updated 8 seconds ago

Clear
Clear
39.6 °F
Feels Like 40 °F
N
0.0
Wind Variable Wind from ESE
Gusts 0.0 mph

Today
High -- | Low -- °F
--% Chance of Precip.
Yesterday
High -- | Low -- °F
Precip. -- in
Pressure 30.04 in
Visibility 2.5 miles
Clouds Clear
Windchill 40 °F
Dew Point 39 °F
Humidity 99%
Rainfall 0.00 in
Snow Depth Not available.
7:05 AM 4:45 PM
Waxing Crescent, 42% visible
SPECI KMOD 061337Z AUTO 32004KT 2 1/2SM BR CLR 06/04 A3004 RMK AO2 T00610044
Pressure 30.04 in
Visibility 2.5 miles
Clouds Clear
Windchill 40 °F
Dew Point 39 °F
Humidity 99%
Rainfall 0.00 in
Snow Depth Not available.
7:05 AM 4:45 PM
Waxing Crescent, 42% visible
SPECI KMOD 061337Z AUTO 32004KT 2 1/2SM BR CLR 06/04 A3004 RMK AO2 T00610044

10-Day Weather Forecast

Almanac

Astronomy

Dec. 06, 2016 Rise Set
Actual Time
Civil Twilight
Nautical Twilight
Astronomical Twilight
Moon
Length of Visible Light
Length of Day
Tomorrow will be .
, % of the Moon is Illuminated

Today's Extremes

State Highs State Lows

Community

WunderPhotos

Upload Photos

1,955,944 photos uploaded!

WunderBlog® & News

Nearby

Air Quality

  Air Quality AQ Index Pollutant
Not available.

Snow Depth

Station Depth Elevation

Earthquake Activity

City Distance Mag. Time & Date
Minimum magnitude displayed is 2.5.

Coastal Water Temperatures

Place Temperature

Stations

Nearby Weather Stations

Station Location Temp. Windchill Dew Point Humidity Wind Precip. Elev Updated Type
                   

Watches & Warnings

Freeze Watch
Issued: 4:00 AM PST Dec. 6, 2016 – National Weather Service

... Freeze watch remains in effect from late tonight through
Wednesday morning...

* temperature... 28 to 32 degrees possible late Tuesday night
into Wednesday morning.

* Impacts... temperatures this cold may damage plants and pipes
if left unprotected.

Precautionary/preparedness actions...

A freeze watch means sub-freezing temperatures are possible. These
conditions could kill crops and other sensitive vegetation. Take
precautions to protect exposed pipes, pets, and livestock.


Interact with US via social media
www.Facebook.Com/NWS.Sacramento
www.Twitter.Com/nwssacramento